Location: Piotrkow Trybunalski
(51.4000°N, 19.6830°E)
Time: 01:28:11
(UTC+02:00)

STRAND 1 - Pass Details

Date: 05 April 2023
Orbit: 767 x 779 km, 98.4° (Epoch: 06 June)

Event Time Altitude Azimuth Distance (km) Brightness Sun altitude
Rises 04:32:21 0° 108° (ESE) 3,247 ? -14.9°
Reaches altitude 10° 04:35:35 10° 86° (E) 2,322 ? -14.4°
Maximum altitude 04:38:25 15° 52° (NE) 1,985 ? -14.1°
Drops below altitude 10° 04:41:15 10° 18° (NNE) 2,326 ? -13.7°
Sets 04:44:30 0° 356° (N) 3,255 ? -13.2°
